Regional Weather Roundup
Issued by NWS

Home | Current Version | Previous Version | Text Only | Print | Product List | Glossary Off
Versions: 1 2 3 4 5 6 7 8 9 10 11 12 13 14 15 16 17 18 19 20 21 22 23 24 25 26 27 28 29 30 31 32 33 34 35 36 37 38 39 40 41 42 43 44 45 46 47 48 49 50

000
ASUS43 KDTX 241101
RWRMI
MICHIGAN HOURLY REGIONAL WEATHER ROUNDUP
NATIONAL WEATHER SERVICE DETROIT/PONTIAC MI
700 AM EDT THU APR 24 2014

NOTE: "FAIR" INDICATES FEW OR NO CLOUDS BELOW 12,000 FEET WITH NO
SIGNIFICANT WEATHER AND/OR OBSTRUCTION TO VISIBILITY.

MIZ047>049-052>055-059>063-066>070-074>076-081>083-241200-
SOUTHEAST LOWER MICHIGAN

CITY           SKY/WX    TMP DP  RH WIND       PRES   REMARKS
ADRIAN         MOCLDY    43  34  70 SE6       30.16R
ALMA           CLOUDY    38  28  68 E3        30.15R
ANN ARBOR      CLOUDY    41  21  44 E6        30.16R
BAD AXE        CLOUDY    29  25  84 CALM      30.18R
CARO           MOCLDY    33  26  76 CALM      30.17R
DETROIT CITY   CLOUDY    39  22  50 CALM      30.18R
DETROIT        CLOUDY    40  18  41 CALM      30.18R
FLINT          MOCLDY    37  24  59 E6        30.17R WCI  32
GROSSE ILE     MOCLDY    39   1  20 E5        30.17R
HILLSDALE      CLOUDY    44  29  55 SE8       30.11F
HOWELL         CLOUDY    39  19  44 SE7       30.15S WCI  34

CITY           SKY/WX    TMP DP  RH WIND       PRES   REMARKS
JACKSON        CLOUDY    42  29  59 E9        30.13S
LAMBERTVILLE   PTCLDY    45  32  61 CALM      30.16S
LANSING        CLOUDY    42  25  50 SE8       30.14S
LAPEER         FAIR      31  27  84 CALM      30.17R
MASON          CLOUDY    41  26  54 SE7       30.14S
MONROE         MOCLDY    39  25  56 NE6       30.15S WCI  35
MT. CLEMENS    CLOUDY    33  23  66 NW1       30.17R
PONTIAC        CLOUDY    36  18  48 CALM      30.16R
PORT HOPE        N/A     31  26  82 SW3       30.16R
PORT HURON     MOCLDY    28  27  93 CALM      30.18R
TRI CITIES     CLOUDY    37  28  70 E5        30.17R WCI  33
TROY           CLOUDY    37  18  46 CALM      30.18S
SAGINAW HB     CLOUDY    36  27  69 CALM      30.17S
YPSILANTI      CLOUDY    42  25  50 E6        30.16S
$$
MIZ043>046-050>051-056>058-064>065-071>073-077>080-241200-
SOUTHWEST LOWER MICHIGAN

CITY           SKY/WX    TMP DP  RH WIND       PRES   REMARKS
BATTLE CREEK   CLOUDY    46  29  51 E8        30.10F
BENTON HARBOR  CLOUDY    45  35  68 SE5       30.08S
BIG RAPIDS     CLOUDY    39  23  51 E3        30.12S
COLDWATER      CLOUDY    45  30  56 SE9       30.10F
FREMONT        CLOUDY    41  22  47 E6        30.10S
HOLLAND        CLOUDY    47  31  53 E7        30.10S
GRAND RAPIDS   CLOUDY    43  32  65 E7        30.10F
IONIA          CLOUDY    40  32  73 E5        30.11S
KALAMAZOO      CLOUDY    47  30  51 SE5       30.09F
LUDINGTON      CLOUDY    40  25  53 E5        30.10S
MARSHALL       CLOUDY    44  31  59 E6        30.10F
MOUNT PLEASANT CLOUDY    36  26  67 E3        30.15S
MUSKEGON       CLOUDY    44  28  53 E7        30.10S
SOUTH HAVEN    CLOUDY    46  31  55 E5        30.08S
$$
MIZ016>042-241200-
NORTHERN LOWER MICHIGAN

CITY           SKY/WX    TMP DP  RH WIND       PRES   REMARKS
ALPENA         CLOUDY    31  26  82 CALM      30.17R
BEAVER ISLAND  CLOUDY    32  25  76 E3        30.15S
BELLAIRE       CLOUDY    32  28  86 CALM      30.15S
CADILLAC       CLOUDY    38  17  44 SE5       30.11F WCI  34
CHARLEVOIX     CLOUDY    34  22  61 CALM      30.17F
FRANKFORT      CLOUDY    40  19  42 E7        30.10F
GAYLORD        CLOUDY    31  24  75 CALM      30.13S
GRAYLING       CLOUDY    30  26  87 CALM      30.15S
HARBOR SPRINGS CLOUDY    31  25  77 CALM      30.15R
HOUGHTON LAKE  CLOUDY    33  28  81 E5        30.15R WCI  29
MANISTEE       CLOUDY    39  19  45 E8        30.10F WCI  34
OSCODA         CLOUDY    30  25  82 SW5       30.17R WCI  25
PELLSTON       CLOUDY    29  25  85 CALM      30.16S
ROGERS CITY    CLOUDY    30  28  90 CALM      30.17S
TRAVERSE CITY  CLOUDY    35  29  78 NE3       30.12S
$$
MIZ007>008-015-241200-
EASTERN UPPER MICHIGAN

CITY           SKY/WX    TMP DP  RH WIND       PRES   REMARKS
KINROSS        CLOUDY    30  28  93 CALM      30.15S
MACKINAC ISLAN CLOUDY    32  25  76 E3        30.15S
NEWBERRY       CLOUDY    32  24  72 E3        30.14S
S. S. MARIE    CLOUDY    30  26  85 CALM      30.15S
MUNISING         N/A     37  21  52 CALM      30.12F
$$
MIZ004>006-011>014-085-241200-
CENTRAL UPPER MICHIGAN

CITY           SKY/WX    TMP DP  RH WIND       PRES   REMARKS
MANISTIQUE     CLOUDY    32  26  81 SE5       30.13F WCI  27
ESCANABA       CLOUDY    36  21  55 CALM      30.12S
MENOMINEE      MOCLDY    36  21  55 E7        30.08F WCI  30
$$
MIZ001>003-009>011-084-241200-
WESTERN UPPER MICHIGAN

CITY           SKY/WX    TMP DP  RH WIND       PRES   REMARKS
IRON MOUNTAIN  CLOUDY    37  19  48 E3        30.05F
HOUGHTON       CLOUDY    36  22  56 E6        30.06S WCI  31
COPPER HARBOR    N/A     36  24  62 CALM      30.09S
IRONWOOD       CLOUDY    37  30  75 SE9G16    29.98F WCI  31
$$

ABBREVIATIONS USED IN REMARKS
   TC - TEMPERATURE IN CELSIUS
  WCI - WIND CHILL INDEX
   HX - HEAT INDEX
  VSB - VISIBILITY




USA.gov is the U.S. government's official web portal to all federal, state and local government web resources and services.